TimePST,TemperatureF,Dew PointF,Humidity,Sea Level PressureIn,VisibilityMPH,Wind Direction,Wind SpeedMPH,Gust SpeedMPH,PrecipitationIn,Events,Conditions,WindDirDegrees,DateUTC
12:53 AM,25.0,7.0,46,30.20,10.0,Variable,5.8,-,N/A,,Clear,0,2012-03-02 08:53:00
1:53 AM,24.1,7.0,48,30.22,10.0,East,8.1,17.3,N/A,,Clear,90,2012-03-02 09:53:00
2:53 AM,16.0,10.0,77,30.27,10.0,SW,5.8,-,N/A,,Clear,220,2012-03-02 10:53:00
3:53 AM,12.0,7.0,80,30.30,10.0,Variable,4.6,-,N/A,,Clear,0,2012-03-02 11:53:00
4:53 AM,10.0,3.9,76,30.33,10.0,South,3.5,-,N/A,,Clear,180,2012-03-02 12:53:00
5:53 AM,9.0,3.0,77,30.37,10.0,Calm,Calm,-,N/A,,Clear,0,2012-03-02 13:53:00
6:53 AM,7.0,1.0,77,30.41,10.0,South,3.5,-,N/A,,Clear,180,2012-03-02 14:53:00
7:53 AM,10.0,3.9,76,30.41,10.0,South,3.5,-,N/A,,Clear,190,2012-03-02 15:53:00
8:53 AM,23.0,12.0,63,30.38,10.0,Calm,Calm,-,N/A,,Clear,0,2012-03-02 16:53:00
9:53 AM,30.9,7.0,37,30.34,10.0,Calm,Calm,-,N/A,,Clear,0,2012-03-02 17:53:00
10:53 AM,37.0,7.0,29,30.33,10.0,NE,3.5,-,N/A,,Clear,50,2012-03-02 18:53:00
11:53 AM,39.9,8.1,27,30.32,10.0,NNE,8.1,-,N/A,,Clear,30,2012-03-02 19:53:00
12:53 PM,37.9,17.1,43,30.34,10.0,NNE,8.1,-,N/A,,Clear,30,2012-03-02 20:53:00
1:53 PM,41.0,15.1,35,30.33,10.0,NE,6.9,-,N/A,,Clear,40,2012-03-02 21:53:00
2:53 PM,42.1,12.9,31,30.37,10.0,NNE,8.1,-,N/A,,Clear,30,2012-03-02 22:53:00
3:53 PM,42.8,12.2,29,30.33,10.0,NNE,5.8,-,N/A,,Clear,30,2012-03-02 23:53:00
4:53 PM,39.9,15.1,36,30.41,10.0,North,4.6,-,N/A,,Clear,10,2012-03-03 00:53:00
5:53 PM,33.1,21.0,61,30.46,10.0,Calm,Calm,-,N/A,,Clear,0,2012-03-03 01:53:00
6:53 PM,30.0,18.0,61,30.49,10.0,Calm,Calm,-,N/A,,Clear,0,2012-03-03 02:53:00
7:53 PM,27.0,17.1,66,30.52,10.0,South,4.6,-,N/A,,Clear,180,2012-03-03 03:53:00
8:53 PM,26.1,17.1,69,30.48,10.0,Calm,Calm,-,N/A,,Clear,0,2012-03-03 04:53:00
9:53 PM,23.0,16.0,74,30.47,10.0,SSW,3.5,-,N/A,,Clear,200,2012-03-03 05:53:00
10:53 PM,21.9,14.0,72,30.45,10.0,Calm,Calm,-,N/A,,Clear,0,2012-03-03 06:53:00
11:53 PM,19.9,12.9,74,30.45,10.0,Calm,Calm,-,N/A,,Clear,0,2012-03-03 07:53:00